Location: Ash Swamp
(41.5170°N, 74.6157°W)
Time: 17:27:02
(UTC+00:00)

PSLV R/B - Pass Details

Date: 14 July 2020
Orbit: 595 x 628 km, 97.9° (Epoch: 05 August)

Event Time Altitude Azimuth Distance (km) Brightness Sun altitude
Rises 08:31:28 0° 18° (NNE) 2,892 8.1 -10.8°
Reaches altitude 10° 08:33:43 10° 24° (NNE) 1,987 7.3 -10.5°
Maximum altitude 08:37:54 48° 99° (E) 819 4.5 -9.9°
Drops below altitude 10° 08:42:05 10° 174° (S) 1,989 5.8 -9.3°
Sets 08:44:20 0° 180° (S) 2,894 6.6 -9.0°
